Location: Unspecified
(64.9000°N, 0.0000°E)
Time: 21:25:15
(UTC+00:00)

Transit 2A Rocket - Pass Details

Date: 26 June 2019
Orbit: 594 x 909 km, 66.7° (Epoch: 21 October)

Event Time Altitude Azimuth Distance (km) Brightness Sun altitude
Rises 17:58:09 0° 306° (NW) 3,369 9.4 21.5°
Reaches altitude 10° 18:01:09 10° 293° (WNW) 2,376 9.4 21.2°
Maximum altitude 18:05:15 22° 244° (WSW) 1,602 7.8 20.8°
Drops below altitude 10° 18:09:05 10° 194° (SSW) 2,203 7.5 20.4°
Sets 18:11:45 0° 179° (S) 3,061 8.0 20.1°
